This is the latest recevied weather packets stored in our database for station/object WA4TPR. If no packets are shown the sender has not sent any weather packets the latest 10 day(s).
| Time | Temp. | Humidity | Pressure | Rain* | Wind** | Luminosity | Snow |
|---|---|---|---|---|---|---|---|
| 1777307198 | 28.89° C | 70% | 1019.3 hPa | 0 mm | - | 855 W/m² | - |
| 1777306895 | 28.89° C | 70% | 1019.3 hPa | 0 mm | - | 810 W/m² | - |
| 1777306592 | 28.89° C | 70% | 1019.4 hPa | 0 mm | - | 851 W/m² | - |
| 1777306288 | 28.89° C | 70% | 1019.3 hPa | 0 mm | - | 212 W/m² | - |
| 1777305983 | 28.33° C | 70% | 1019.4 hPa | 0 mm | - | 783 W/m² | - |
| 1777305681 | 28.33° C | 71% | 1019.4 hPa | 0 mm | - | 172 W/m² | - |
| 1777305376 | 27.78° C | 73% | 1019.4 hPa | 0 mm | - | 772 W/m² | - |
| 1777305076 | 28.33° C | 73% | 1019.5 hPa | 0 mm | - | 253 W/m² | - |
| 1777304770 | 27.78° C | 73% | 1019.7 hPa | 0 mm | - | 432 W/m² | - |
| 1777304468 | 28.33° C | 73% | 1019.5 hPa | 0 mm | - | 195 W/m² | - |
| 1777304166 | 27.78° C | 75% | 1019.7 hPa | 0 mm | - | 740 W/m² | - |
| 1777303863 | 27.78° C | 75% | 1019.5 hPa | 0 mm | - | 713 W/m² | - |
| 1777303560 | 27.78° C | 75% | 1019.6 hPa | 0 mm | - | 695 W/m² | - |
| 1777303257 | 27.78° C | 76% | 1019.7 hPa | 0 mm | - | 694 W/m² | - |
| 1777302955 | 27.78° C | 77% | 1019.6 hPa | 0 mm | - | 676 W/m² | - |
| 1777302651 | 27.22° C | 78% | 1019.9 hPa | 0 mm | - | 666 W/m² | - |
| 1777302350 | 27.22° C | 78% | 1019.7 hPa | 0 mm | - | 370 W/m² | - |
| 1777302047 | 26.67° C | 79% | 1019.5 hPa | 0 mm | - | 646 W/m² | - |
| 1777301745 | 26.67° C | 79% | 1019.7 hPa | 0 mm | - | 389 W/m² | - |
| 1777301442 | 26.67° C | 80% | 1019.4 hPa | 0 mm | - | 609 W/m² | - |
| 1777301139 | 26.67° C | 79% | 1019.5 hPa | 0 mm | - | 580 W/m² | - |
| 1777300835 | 26.11° C | 80% | 1019.3 hPa | 0 mm | - | 572 W/m² | - |
| 1777300534 | 26.11° C | 81% | 1019.6 hPa | 0 mm | - | 549 W/m² | - |
| 1777300231 | 26.11° C | 82% | 1019.4 hPa | 0 mm | - | 540 W/m² | - |
| 1777299927 | 26.11° C | 83% | 1019.6 hPa | 0 mm | - | 532 W/m² | - |
* Rain latest hour (hover to see other rain measurements)
** Current wind speed in m/s (hover to see current wind gust speed)